Overview Statistics Trail Chart Weather Telemetry Raw packets
 

This is the latest recevied weather packets stored in our database for station/object 9W2XPF-13. If no packets are shown the sender has not sent any weather packets the latest 10 day(s).

<< 74 75 76 77 78 79 80 >>
Time Temp. Humidity Pressure Rain* Wind** Luminosity Snow
1777684082 27.22° C 96% 1009.8 hPa 0 mm - - -
1777683962 27.22° C 96% 1009.6 hPa 0 mm - - -
1777683842 27.22° C 97% 1009.7 hPa 0 mm - - -
1777683722 27.22° C 97% 1009.6 hPa 0 mm - - -
1777683603 27.22° C 97% 1009.5 hPa 0 mm - - -
1777683483 27.22° C 98% 1009.6 hPa 0 mm - - -
1777683362 26.67° C 98% 1009.5 hPa 0 mm - - -
1777683242 26.67° C 98% 1009.2 hPa 0 mm - - -
1777683122 27.22° C 97% 1009.2 hPa 0 mm - - -
1777683003 26.67° C 99% 1009.3 hPa 0 mm - - -
1777682882 26.67° C 99% 1009.3 hPa 0 mm - - -
1777682762 26.67° C 99% 1009.4 hPa 0 mm - - -
1777682642 26.11° C 99% 1009.3 hPa 0 mm - - -
1777682523 26.11° C 99% 1009 hPa 0 mm - - -
1777682402 26.11° C 99% 1009.1 hPa 0 mm - - -
1777682282 26.11° C 99% 1009.2 hPa 0 mm - - -
1777682162 25.56° C 99% 1009.2 hPa 0 mm - - -
1777682042 25.56° C 99% 1009.1 hPa 0 mm - - -
1777681922 25.56° C 99% 1009 hPa 0 mm - - -
1777681803 25.56° C 99% 1009 hPa 0 mm - - -
1777681682 25.56° C 99% 1008.9 hPa 0 mm - - -
1777681563 25.56° C 99% 1008.8 hPa 0 mm - - -
1777681442 25.56° C 99% 1008.9 hPa 0 mm - - -
1777681323 25.56° C 99% 1008.8 hPa 0 mm - - -
1777681203 25° C 99% 1008.9 hPa 0 mm - - -

* Rain latest hour (hover to see other rain measurements)
** Current wind speed in m/s (hover to see current wind gust speed)